Location: *
(44.9308°N, 123.0197°W)
Time: 21:49:04
(UTC+00:00)

Cosmos 1943 - Pass Details

Date: 09 April 2020
Orbit: 832 x 851 km, 71.0° (Epoch: 02 June)

Event Time Altitude Azimuth Distance (km) Brightness Sun altitude
Rises 12:43:20 0° 332° (NNW) 3,426 6.3 -9.9°
Reaches altitude 10° 12:45:48 10° 330° (NNW) 2,487 5.6 -9.5°
Maximum altitude 12:51:28 70° 248° (WSW) 906 3.2 -8.6°
Drops below altitude 10° 12:57:06 10° 166° (SSE) 2,468 5.6 -7.6°
Sets 12:59:33 0° 164° (SSE) 3,398 6.3 -7.2°
